Dewpoint
47 46 46 46 45 43 41 38 36 32 30 31 31 32 33 34 34 34 34 40 43 44 43 43 44 43 43 40 39 39 39 39 37 34 32 32 32 33
47 46 46 46 45 45 42 40 37 35 31 32 32 32 32 32 33 35 33 38 41 42 43 42 42 42 42 41 40 39 40 39 37 34 32 31 31 32
47 46 45 45 44 43 42 40 37 35 32 32 33 32 31 31 32 32 33 33 34 39 40 41 41 41 41 40 39 40 40 38 36 35 31 31 31 31
46 45 44 45 43 43 41 39 37 35 33 31 32 32 31 32 32 31 31 30 32 35 39 39 41 40 40 39 39 39 39 37 37 35 31 30 30 31
45 45 45 44 42 40 38 37 35 34 33 31 30 30 30 30 28 28 28 28 28 33 36 39 40 41 40 39 39 39 38 36 36 35 35 34 31 31
46 45 44 42 41 37 33 32 31 30 29 28 27 27 28 28 28 27 27 27 27 27 30 32 34 36 37 37 38 38 36 36 35 35 35 34 34 34
43 41 40 38 36 32 29 27 28 27 27 26 25 25 25 26 26 27 27 28 28 28 28 29 30 31 31 34 35 36 36 36 35 35 35 34 33 33
37 33 32 35 34 33 33 32 28 25 24 24 24 25 24 25 26 26 26 26 24 28 27 29 30 30 29 26 30 33 32 31 32 32 33 33 32 32
33 31 29 28 30 28 29 28 28 29 28 26 25 25 24 25 26 26 25 26 27 26 29 28 26 26 26 23 28 31 32 32 32 33 33 32 32 32
31 30 28 27 30 30 28 27 27 28 28 27 27 26 26 27 28 28 28 29 29 28 31 27 26 25 24 24 27 28 30 32 32 33 32 32 31 31
28 28 27 27 27 27 26 25 25 25 26 28 29 30 31 32 32 31 28 28 25 25 27 28 26 24 23 23 24 28 29 32 32 31 29 27 29 29
25 25 26 25 26 25 25 26 25 25 28 28 28 28 29 30 31 31 30 26 26 25 25 25 25 26 25 23 24 24 25 28 26 25 26 25 25 26
24 23 24 22 22 23 25 27 26 25 25 25 25 25 25 25 26 29 31 30 27 26 26 28 26 25 26 20 22 23 23 22 23 23 25 25 25 25
21 22 22 21 22 25 26 21 22 24 23 22 21 21 20 21 22 22 24 28 32 30 29 31 28 25 25 24 23 23 23 22 19 21 23 24 26 26
21 20 21 21 23 26 20 20 22 22 20 19 17 16 18 18 19 21 22 23 24 28 31 32 30 28 27 25 23 22 21 21 22 21 20 22 23 23
22 21 22 23 24 23 21 21 20 19 18 16 15 17 15 16 15 17 18 17 20 20 27 31 31 30 27 27 25 23 23 22 21 21 21 23 23 24
23 22 21 20 18 18 17 16 16 14 14 15 15 12 12 12 12 15 14 14 16 16 17 26 30 30 30 28 25 24 24 24 23 23 21 21 23 24
21 19 17 16 16 16 16 15 14 13 13 13 12 10 9 10 10 10 11 12 11 12 15 17 28 26 27 28 29 26 20 21 22 23 23 22 22 23
20 19 14 14 14 16 15 13 12 13 12 11 9 7 8 9 8 7 8 8 8 9 12 17 20 26 21 20 22 30 25 22 21 20 21 20 16 21
19 17 14 14 13 12 11 11 10 6 3 7 2 0 0 6 4 4 4 4 6 7 9 12 17 26 23 19 15 16 28 22 20 17 15 18 21 23
14 13 13 12 11 10 2 -3 -11 -10 -9 -12 -6 -5 -6 1 2 3 3 3 3 5 6 8 13 19 21 23 15 10 13 25 25 21 18 16 21 18
10 11 11 9 1 -1 -10 -10 -13 -12 -7 -7 -5 -12 -13 -8 -1 0 1 1 1 3 6 9 13 17 23 21 15 6 13 11 19 25 24 22 17 12
4 6 5 -1 1 2 3 -6 -8 -13 -7 -1 -3 -3 -10 -8 -1 2 1 0 1 2 5 7 11 15 23 22 17 15 15 12 17 19 19 27 27 26
Lifted_Index
2 2 3 4 5 5 6 6 6 5 6 7 9 10 11 12 12 12 12 12 12 11 11 10 10 10 10 10 10 10 11 10 10 11 11 10 10 9
2 2 3 4 5 5 6 6 6 6 7 8 10 10 11 11 11 12 12 12 11 11 11 11 10 10 10 10 10 10 10 10 10 10 10 9 9 8
2 2 3 4 5 5 6 7 7 8 8 9 10 10 11 11 11 11 11 11 11 11 11 11 11 11 11 10 10 10 10 9 9 8 8 8 8 7
2 2 3 4 5 6 7 8 8 9 9 9 10 11 11 12 12 12 12 12 12 12 12 12 11 11 11 11 11 10 9 8 8 7 7 7 7 7
2 2 3 4 5 7 8 8 9 9 10 10 11 11 12 12 13 13 13 13 13 12 12 12 11 11 11 10 10 9 9 8 7 7 6 6 6 6
2 3 4 5 6 7 8 8 9 10 10 11 12 13 13 13 13 13 13 14 13 13 13 12 11 11 11 10 10 9 8 7 6 6 6 6 5 5
3 4 5 6 7 8 9 9 9 10 11 13 14 14 14 14 14 14 14 14 14 14 13 13 12 11 11 10 10 9 7 7 6 6 5 5 5 5
5 6 7 8 8 9 9 10 11 11 12 14 15 15 14 15 15 15 15 15 15 15 14 13 12 12 11 10 9 8 7 7 6 6 5 5 5 5
7 7 8 9 9 10 11 11 12 13 15 16 16 15 16 16 16 16 16 15 15 15 14 14 13 12 10 9 8 7 7 7 6 5 5 5 5 5
8 9 9 10 11 12 12 13 14 16 17 17 17 17 17 17 16 16 16 15 15 14 14 13 12 11 10 8 7 7 6 6 6 5 5 5 5 5
10 10 11 11 13 14 15 15 16 17 17 18 18 18 17 17 16 16 15 14 14 13 13 12 11 10 9 7 7 6 6 6 5 5 5 5 5 6
11 12 13 14 15 16 17 17 17 17 18 18 18 18 17 17 16 15 14 13 13 12 11 11 10 9 8 7 6 6 6 6 6 6 6 6 6 6
13 14 15 17 18 18 18 18 18 18 18 18 18 18 18 17 16 15 14 13 12 11 10 10 9 8 7 6 5 5 5 5 6 6 6 7 7 7
15 16 17 18 18 19 19 19 19 19 19 18 18 18 17 17 17 16 14 13 12 11 10 9 8 7 6 5 4 4 4 4 5 6 6 7 7 7
17 17 18 18 19 19 19 20 20 19 19 18 18 17 17 17 17 16 15 13 12 10 9 8 7 6 5 4 3 3 3 4 5 6 6 6 6 6
18 18 18 19 19 20 20 20 20 20 19 18 18 17 17 17 16 16 15 14 12 10 9 7 6 4 3 3 2 2 3 3 4 5 6 6 6 6
18 18 18 19 19 20 20 20 20 20 19 19 18 17 17 16 16 15 14 13 12 10 9 7 5 3 2 2 2 2 3 4 4 5 5 5 6 6
19 19 19 19 19 20 20 20 20 20 20 19 18 17 17 16 15 15 14 13 12 11 9 6 4 2 2 1 1 2 3 4 4 5 5 5 6 6
19 19 19 20 20 20 20 20 20 20 20 19 18 17 17 16 15 14 14 13 12 10 8 5 3 2 1 1 1 2 3 4 4 5 5 5 6 6
21 21 21 21 21 21 21 20 20 20 20 19 18 18 17 16 15 14 13 12 11 9 7 5 3 2 1 1 1 2 3 4 4 5 5 5 5 6
22 22 22 22 21 21 21 21 20 20 19 19 18 18 17 16 15 14 13 12 10 8 7 5 3 2 1 1 1 2 3 4 4 5 5 5 5 5
23 23 23 22 22 21 21 21 20 20 19 18 18 17 16 16 15 14 12 11 9 8 6 5 3 2 1 1 1 2 3 4 5 5 5 5 5 5
23 23 23 22 22 21 21 21 20 19 19 18 17 17 16 15 14 13 12 10 9 7 6 5 3 2 1 1 1 2 3 4 5 5 5 5 5 5